星链-3401 (STARLINK-3401 )

导读

STARLINK-3401是美国太空探索技术公司(SpaceX)星链互联网卫星星座的一员,于2022年2月3日发射。星链计划旨在构建全球卫星互联网,该卫星入轨后为星座扩容,服务覆盖偏远地区、提供通信备份等,目前已在轨运行超4年,是星链数千颗运营卫星中的组成部分,支撑全球低轨宽带网络服务。

基本信息
目录编号:
51465
目录名称:
STARLINK-3401
国际标识:
2022-010K
轨道中心:
EARTH
卫星名称:
星链-3401
卫星全名:
星链-3401 (STARLINK-3401 )
卫星状态:
在轨 (已飞行1595 天)
发射日期:
2022-02-03 UTC
国别 :
美国 (US)
星等 :
--
轨道信息
数据来源 国际轨道数据
星历时间: 2026-06-17T17:07:33+0800
8小时前
查看轨道信息
半长轴: 6917.911km
偏心率: 0.0001101
轨道倾角: 53.160°
近地点辐角 89.650°
升交点赤经 191.495°
平近点角 270.462°
近地点: 539.012km
远地点: 540.536km
周期: 95.438分钟
每日圈数: 15.0883
详细信息
固有亮度:
5
最大亮度:
2.5
卫星平台:
Starlink v1.5
覆盖范围:
全球
运营商:
太空探索技术公司
运营商所在国:
美国
制造商(研发单位):
太空探索技术公司
制造商所在国:
美国
使用方式:
暂无
卫星简介
星链(Starlink)计划是由太空探索技术公司(SpaceX)提出的一个巨型低轨卫星互联网星座项目,计划在2019年至2024年间在太空搭建由约1.2万颗卫星组成的“星链”网络,其中1584颗将部署在地球上空550千米处的近地轨道,并从2020年开始工作。该卫星仍在工作。
2D轨道图
3D轨道图
轨道高度分析图
轨道倾角分析图
轨道综合分析图
查看轨道综合分析图